Volver al catálogo

SCOUT G-1 DEB

ActivoPO
NORAD 14222·DEBRIS·🇺🇸 United States

Lanzado Jun 27, 1983 desde Vandenberg Space Force Base

Loading…

Próximos Pases (próximas 24 horas)

TLE

ActualizadoSource: Space-Track

Época: Sep 14, 2026, 00:39 UTC

1 14222U 83063C   26257.02767145  .00001283  00000-0  19227-3 0  9993
2 14222  82.3646 278.2909 0014310 306.4662  53.5228 14.73916328290386

Sigue SCOUT G-1 DEB en tiempo real con AllMySat

Download on the App Store